Flag for Canada Weather past 2 weeks in Vancouver, British Columbia, Canada

Now
52 °F

Clear.


Feels Like: 45 °F
Forecast: 43 / 62 °F
Wind: 23 mph from Northwest

Location: Vancouver International Air-Port

Current Time: Apr 18, 2015 at 12:23:57 AM

Latest Report: Apr 18, 2015 at 12:00 AM


Visibility: 20 mi

Pressure: 30.29 "Hg

Humidity: 72%

Dew point: 43 °F

Location of VancouverLocation

Historic Weather in Vancouver — Graph

°F

Vancouver temperature yesterday

Maximum temperature yesterday: 57 °F (at 1:00 PM)
Minimum temperature yesterday: 43 °F (at 2:00 AM)
Average temperature yesterday: 52 °F

Past Weeks' High & Low Weather Summary

 TemperatureHumidityPressure
High59 °F (Apr 9, 5:00 PM)94% (Apr 17, 6:00 AM)30.54 "Hg (Apr 17, 6:00 AM)
Low34 °F (Apr 5, 7:00 AM)47% (Apr 11, 3:00 PM)29.67 "Hg (Apr 5, 8:00 PM)
Average48 °F74%30.06 "Hg
* Reported Apr 2 11:00 PM — Apr 17 11:00 PM, Vancouver, Weather by CustomWeather, © 2015

Note: Actual official high and low records may vary slightly from our data, if they occured in-between our weather recording intervals... More about our weather records

Advertising

Vancouver weather history for previous 24 hours

 ConditionsComfort  
Time TempWeatherWind HumidityBarometerVisibility
11:00 PM
Fri, Apr 17
52 °FClear.23 mph72%30.28 "Hg20 mi
10:00 PM52 °FPassing clouds.23 mph77%30.27 "Hg20 mi
9:00 PM54 °FPassing clouds.23 mph67%30.26 "Hg20 mi
8:00 PM54 °FPassing clouds.22 mph72%30.23 "Hg20 mi
7:00 PM55 °FPassing clouds.20 mph67%30.23 "Hg20 mi
6:00 PM57 °FPassing clouds.26 mph63%30.22 "Hg20 mi
5:00 PM57 °FScattered clouds.21 mph72%30.22 "Hg20 mi
4:00 PM57 °FScattered clouds.22 mph77%30.24 "Hg20 mi
3:00 PM57 °FScattered clouds.9 mph77%30.25 "Hg20 mi
2:00 PM57 °FPassing clouds.14 mph77%30.26 "Hg20 mi
1:00 PM57 °FPassing clouds.12 mph77%30.25 "Hg20 mi
12:00 PM55 °FPassing clouds.9 mph82%30.26 "Hg20 mi
11:00 AM55 °FScattered clouds.9 mph77%30.26 "Hg20 mi
10:00 AM54 °FScattered clouds.3 mph77%30.25 "Hg20 mi
9:00 AM54 °FScattered clouds.5 mph77%30.25 "Hg20 mi
8:00 AM50 °FBroken clouds.7 mph76%30.24 "Hg20 mi
7:00 AM48 °FScattered showers. Passing clouds.6 mph87%30.23 "Hg20 mi
6:45 AM50 °FPassing clouds.3 mph82%30.23 "Hg20 mi
6:00 AM48 °FOvercast.6 mph94%30.24 "Hg20 mi
5:00 AM46 °FMostly cloudy.No wind87%30.23 "Hg20 mi
4:00 AM46 °FPassing clouds.No wind82%30.23 "Hg20 mi
3:00 AM46 °FOvercast.3 mph87%30.23 "Hg20 mi
2:00 AM43 °FClear.2 mph93%30.22 "Hg20 mi
1:00 AM46 °FClear.No wind87%30.23 "Hg20 mi
12:00 AM50 °FClear.No wind76%30.23 "Hg20 mi
Weather by CustomWeather, © 2015

See weather overviewHow to use our weather pages